Lid_Strength_Index
9 8 9 8 9 8 9 9 10 11 10 9 7 8 7 6 6 6 5 5 4 4 4 3 3 2 2 1 1 1 1 1 1 0 0 0 0 0 0 -0 -0 -0 -0 -0
9 9 8 10 9 9 9 9 9 9 10 7 7 6 6 6 6 6 6 5 4 4 3 3 3 2 2 2 1 1 1 1 1 0 0 1 0 -0 -0 0 0 -0 0 0
10 9 8 11 9 9 9 8 9 10 8 7 8 7 6 6 5 5 5 4 4 4 3 3 2 2 2 2 1 1 1 1 1 1 1 2 1 1 0 1 1 1 0 0
9 9 13 8 7 7 8 8 7 8 7 7 6 6 5 4 5 5 4 4 3 3 3 2 2 1 1 1 1 1 1 1 1 1 1 0 0 0 1 1 1 0 1 0
10 10 10 9 8 9 9 9 7 7 7 7 6 5 6 4 4 4 3 3 3 2 2 2 2 1 1 1 1 1 2 1 1 1 1 1 1 1 0 0 0 1 0 0
10 11 13 9 7 6 6 10 6 6 7 7 6 8 7 4 3 3 3 2 2 2 2 2 1 1 1 2 2 2 1 1 0 0 1 1 1 1 0 0 0 0 0 0
10 10 9 7 6 6 11 10 6 6 6 6 7 5 4 3 3 3 2 2 2 2 2 2 1 1 2 2 2 1 0 0 0 0 0 0 0 -0 0 1 0 1 1 0
10 11 12 6 6 9 7 6 5 5 5 6 5 4 4 4 3 3 3 3 2 2 2 1 1 1 2 2 1 0 0 1 1 0 0 0 1 0 1 1 1 1 1 1
9 9 6 5 6 4 5 5 5 5 4 4 5 4 4 4 3 3 3 2 2 2 2 1 1 1 2 1 1 1 1 1 1 0 0 0 1 1 1 1 2 2 2 2
9 7 6 5 4 4 4 4 4 3 4 4 4 3 4 3 3 3 2 2 2 2 2 2 1 1 1 1 0 1 1 1 1 1 1 1 1 1 1 2 2 2 2 2
8 7 6 5 4 4 4 3 3 3 3 3 3 3 3 3 3 3 2 2 2 2 2 2 1 1 1 0 1 1 1 1 1 1 1 1 1 1 1 1 4 2 2 2
8 6 6 6 4 3 4 4 3 3 3 3 3 3 3 3 2 2 2 2 2 2 2 2 1 1 1 0 0 1 2 1 1 1 1 1 1 1 8 9 10 10 11 8
5 4 4 4 3 3 3 3 3 3 3 3 3 3 3 3 2 3 2 2 2 2 2 2 1 1 1 0 0 1 2 1 1 1 1 1 1 2 2 3 9 9 12 11
4 4 5 4 4 3 3 2 3 2 2 2 3 2 2 3 3 2 2 2 2 1 2 1 1 1 1 0 0 1 1 7 1 1 1 1 1 1 1 2 3 2 8 9
4 3 3 3 3 3 2 3 3 3 3 3 2 3 3 3 3 2 2 2 1 1 2 1 1 1 0 0 0 1 1 1 1 0 0 1 1 1 1 2 2 2 1 6
4 3 3 4 3 3 3 3 3 3 3 3 3 3 2 2 2 2 2 1 2 2 2 1 1 1 0 0 1 0 0 3 2 1 1 1 1 1 1 2 2 1 1 2
5 5 4 4 4 3 3 3 3 3 3 3 3 2 2 2 2 2 2 1 1 1 1 1 1 0 0 0 0 0 0 0 3 1 1 1 1 1 1 1 2 2 1 1
4 3 3 3 3 3 3 3 3 3 3 2 2 2 3 3 3 2 2 2 1 2 1 1 0 0 0 0 0 0 0 1 0 1 1 1 1 1 1 1 1 1 1 1
3 4 3 3 3 3 3 3 2 2 2 2 2 3 2 2 2 2 2 2 2 2 2 0 1 1 0 0 0 -0 0 1 0 1 0 2 1 0 1 0 1 1 0 1
4 3 3 3 2 3 3 2 2 2 2 2 2 2 3 2 2 2 2 2 1 1 0 0 1 0 -0 -0 -0 -0 0 0 1 1 1 1 1 1 1 4 1 1 1 1
4 3 3 3 3 2 2 2 2 2 2 2 3 3 3 2 2 2 2 3 1 1 1 1 0 0 -0 -0 -0 -0 -0 0 1 1 1 1 1 1 1 1 1 1 1 0
5 4 4 3 3 3 2 2 2 2 2 2 2 2 2 2 2 2 1 2 1 4 1 1 0 1 -0 1 -0 -0 -0 0 1 0 1 1 1 1 1 1 1 1 1 0
5 4 4 3 3 3 2 2 2 2 2 2 2 2 2 2 2 3 3 1 1 2 0 0 2 3 3 0 -0 -0 0 0 1 1 0 0 0 0 0 0 1 0 0 0
6 5 4 3 3 3 3 3 2 2 2 2 2 1 2 2 2 1 0 2 4 4 1 1 1 4 5 0 0 0 0 0 0 0 0 6 0 0 0 0 0 -0 -0 0
6 5 4 4 3 4 3 2 2 2 2 2 2 1 1 1 1 1 1 1 4 2 1 4 4 4 0 0 0 0 0 0 0 0 0 0 0 0 0 0 0 0 -0 -0
6 6 5 4 4 3 3 2 3 2 2 3 2 1 1 1 1 1 1 2 0 2 0 0 0 0 0 0 0 0 0 -0 0 0 1 0 0 0 0 0 0 -0 0 -0
5 8 5 4 3 3 3 4 3 3 2 2 2 2 1 1 2 2 3 1 1 1 0 0 0 1 0 0 1 1 1 1 3 1 0 -0 -0 -0 -0 -0 -0 -0 -0 -0